Time,TemperatureF,DewpointF,PressureIn,WindDirection,WindDirectionDegrees,WindSpeedMPH,WindSpeedGustMPH,Humidity,HourlyPrecipIn,Conditions,Clouds,dailyrainin,SoftwareType,DateUTC
2013-07-10 00:01:00,58.0,45.0,30.57,NNW,340,5.0,12.0,60,-99.99,,,-99.99,,2013-07-10 06:01:00,
2013-07-10 00:06:00,58.0,45.0,30.57,NNW,330,6.0,8.0,61,-99.99,,,-99.99,,2013-07-10 06:06:00,
2013-07-10 00:15:00,58.0,44.0,30.58,NW,320,5.0,8.0,60,-99.99,,,-99.99,,2013-07-10 06:15:00,
2013-07-10 00:20:00,57.0,44.0,30.58,WNW,300,6.0,8.0,61,-99.99,,,-99.99,,2013-07-10 06:20:00,
2013-07-10 00:26:00,57.0,44.0,30.57,WNW,300,8.0,8.0,63,-99.99,,,-99.99,,2013-07-10 06:26:00,
2013-07-10 00:31:00,57.0,44.0,30.57,NW,310,8.0,8.0,64,-99.99,,,-99.99,,2013-07-10 06:31:00,
2013-07-10 00:36:00,56.0,45.0,30.57,NNW,330,10.0,10.0,65,-99.99,,,-99.99,,2013-07-10 06:36:00,
2013-07-10 00:46:00,56.0,44.0,30.57,NW,310,12.0,12.0,65,-99.99,,,-99.99,,2013-07-10 06:46:00,
2013-07-10 00:56:00,56.0,45.0,30.57,North,10,4.0,9.0,65,-99.99,,,-99.99,,2013-07-10 06:56:00,
2013-07-10 01:01:00,55.0,45.0,30.58,NW,310,7.0,7.0,67,-99.99,,,-99.99,,2013-07-10 07:01:00,
2013-07-10 01:10:00,55.0,45.0,30.57,NNW,340,5.0,6.0,69,-99.99,,,-99.99,,2013-07-10 07:10:00,
2013-07-10 01:15:00,55.0,45.0,30.57,NW,310,9.0,9.0,70,-99.99,,,-99.99,,2013-07-10 07:15:00,
2013-07-10 01:20:00,54.0,45.0,30.57,NW,310,12.0,12.0,70,-99.99,,,-99.99,,2013-07-10 07:20:00,
2013-07-10 01:31:00,54.0,45.0,30.57,North,0,6.0,11.0,71,-99.99,,,-99.99,,2013-07-10 07:31:00,
2013-07-10 01:41:00,54.0,45.0,30.57,North,10,4.0,9.0,73,-99.99,,,-99.99,,2013-07-10 07:41:00,
2013-07-10 01:46:00,54.0,45.0,30.57,North,350,7.0,7.0,73,-99.99,,,-99.99,,2013-07-10 07:46:00,
2013-07-10 01:55:00,54.0,45.0,30.57,North,0,6.0,9.0,74,-99.99,,,-99.99,,2013-07-10 07:55:00,
2013-07-10 02:00:00,53.0,45.0,30.56,North,10,6.0,9.0,74,-99.99,,,-99.99,,2013-07-10 08:00:00,
2013-07-10 02:05:00,53.0,45.0,30.56,North,0,6.0,9.0,74,-99.99,,,-99.99,,2013-07-10 08:05:00,
2013-07-10 02:10:00,53.0,45.0,30.56,North,0,6.0,8.0,73,-99.99,,,-99.99,,2013-07-10 08:10:00,
2013-07-10 02:15:00,53.0,45.0,30.56,NNE,30,6.0,7.0,74,-99.99,,,-99.99,,2013-07-10 08:15:00,
2013-07-10 02:25:00,53.0,45.0,30.56,North,0,9.0,9.0,74,-99.99,,,-99.99,,2013-07-10 08:25:00,
2013-07-10 02:36:00,53.0,46.0,30.56,North,0,6.0,10.0,75,-99.99,,,-99.99,,2013-07-10 08:36:00,
2013-07-10 02:41:00,53.0,45.0,30.56,NNW,340,5.0,9.0,75,-99.99,,,-99.99,,2013-07-10 08:41:00,
2013-07-10 02:50:00,53.0,46.0,30.57,NNW,340,9.0,9.0,77,-99.99,,,-99.99,,2013-07-10 08:50:00,
2013-07-10 02:55:00,52.0,46.0,30.56,NW,320,8.0,8.0,77,-99.99,,,-99.99,,2013-07-10 08:55:00,
2013-07-10 03:05:00,52.0,46.0,30.56,North,0,6.0,10.0,78,-99.99,,,-99.99,,2013-07-10 09:05:00,
2013-07-10 03:10:00,52.0,46.0,30.56,NNW,340,6.0,8.0,78,-99.99,,,-99.99,,2013-07-10 09:10:00,
2013-07-10 03:20:00,52.0,46.0,30.56,North,350,5.0,7.0,79,-99.99,,,-99.99,,2013-07-10 09:20:00,
2013-07-10 03:25:00,52.0,46.0,30.56,NE,40,4.0,8.0,79,-99.99,,,-99.99,,2013-07-10 09:25:00,
2013-07-10 03:30:00,52.0,46.0,30.56,NNE,20,3.0,6.0,78,-99.99,,,-99.99,,2013-07-10 09:30:00,
2013-07-10 03:36:00,52.0,46.0,30.56,West,280,4.0,5.0,78,-99.99,,,-99.99,,2013-07-10 09:36:00,
2013-07-10 03:45:00,52.0,46.0,30.56,North,0,3.0,6.0,78,-99.99,,,-99.99,,2013-07-10 09:45:00,
2013-07-10 03:50:00,52.0,46.0,30.56,NNW,330,7.0,7.0,79,-99.99,,,-99.99,,2013-07-10 09:50:00,
2013-07-10 03:55:00,52.0,46.0,30.55,NW,310,5.0,8.0,80,-99.99,,,-99.99,,2013-07-10 09:55:00,
2013-07-10 04:05:00,52.0,46.0,30.55,NNW,340,6.0,9.0,79,-99.99,,,-99.99,,2013-07-10 10:05:00,
2013-07-10 04:15:00,52.0,46.0,30.55,North,10,7.0,8.0,81,-99.99,,,-99.99,,2013-07-10 10:15:00,
2013-07-10 04:20:00,52.0,46.0,30.55,NNW,340,8.0,9.0,81,-99.99,,,-99.99,,2013-07-10 10:20:00,
2013-07-10 04:30:00,51.0,46.0,30.55,North,350,9.0,9.0,84,-99.99,,,-99.99,,2013-07-10 10:30:00,
2013-07-10 04:35:00,51.0,46.0,30.55,NNW,340,7.0,9.0,85,-99.99,,,-99.99,,2013-07-10 10:35:00,
2013-07-10 04:41:00,50.0,46.0,30.55,NW,310,10.0,10.0,85,-99.99,,,-99.99,,2013-07-10 10:41:00,
2013-07-10 04:50:00,50.0,46.0,30.56,North,10,3.0,11.0,85,-99.99,,,-99.99,,2013-07-10 10:50:00,
2013-07-10 04:55:00,50.0,46.0,30.55,NW,320,10.0,10.0,85,-99.99,,,-99.99,,2013-07-10 10:55:00,
2013-07-10 05:05:00,50.0,46.0,30.55,NNW,330,9.0,10.0,85,-99.99,,,-99.99,,2013-07-10 11:05:00,
2013-07-10 05:15:00,50.0,46.0,30.55,North,350,8.0,10.0,86,-99.99,,,-99.99,,2013-07-10 11:15:00,
2013-07-10 05:20:00,50.0,46.0,30.56,NNW,330,9.0,9.0,86,-99.99,,,-99.99,,2013-07-10 11:20:00,
2013-07-10 05:30:00,50.0,46.0,30.56,North,0,7.0,9.0,87,-99.99,,,-99.99,,2013-07-10 11:30:00,
2013-07-10 05:41:00,50.0,46.0,30.56,NNE,20,5.0,7.0,88,-99.99,,,-99.99,,2013-07-10 11:41:00,
2013-07-10 05:46:00,50.0,46.0,30.56,North,0,5.0,7.0,88,-99.99,,,-99.99,,2013-07-10 11:46:00,
2013-07-10 05:55:00,50.0,46.0,30.56,NW,320,7.0,9.0,87,-99.99,,,-99.99,,2013-07-10 11:55:00,
2013-07-10 06:00:00,50.0,46.0,30.56,NNE,20,6.0,10.0,87,-99.99,,,-99.99,,2013-07-10 12:00:00,
2013-07-10 06:10:00,50.0,47.0,30.56,North,0,7.0,8.0,88,-99.99,,,-99.99,,2013-07-10 12:10:00,
2013-07-10 06:15:00,50.0,46.0,30.56,NNW,340,8.0,9.0,87,-99.99,,,-99.99,,2013-07-10 12:15:00,
2013-07-10 06:25:00,50.0,46.0,30.56,NW,320,6.0,8.0,86,-99.99,,,-99.99,,2013-07-10 12:25:00,
2013-07-10 06:30:00,51.0,47.0,30.56,WNW,300,3.0,8.0,86,-99.99,,,-99.99,,2013-07-10 12:30:00,
2013-07-10 06:35:00,51.0,47.0,30.56,WNW,300,6.0,7.0,87,-99.99,,,-99.99,,2013-07-10 12:35:00,
2013-07-10 06:46:00,51.0,47.0,30.57,WNW,290,6.0,8.0,89,-99.99,,,-99.99,,2013-07-10 12:46:00,
2013-07-10 06:51:00,51.0,47.0,30.57,WNW,300,8.0,8.0,88,-99.99,,,-99.99,,2013-07-10 12:51:00,
2013-07-10 07:00:00,51.0,47.0,30.57,WNW,300,6.0,10.0,85,-99.99,,,-99.99,,2013-07-10 13:00:00,
2013-07-10 07:05:00,51.0,47.0,30.58,NW,310,7.0,9.0,85,-99.99,,,-99.99,,2013-07-10 13:05:00,
2013-07-10 07:10:00,52.0,47.0,30.58,North,350,4.0,8.0,84,-99.99,,,-99.99,,2013-07-10 13:10:00,
2013-07-10 07:15:00,52.0,48.0,30.58,NNE,30,5.0,8.0,87,-99.99,,,-99.99,,2013-07-10 13:15:00,
2013-07-10 07:20:00,52.0,48.0,30.58,WNW,300,7.0,8.0,87,-99.99,,,-99.99,,2013-07-10 13:20:00,
2013-07-10 07:25:00,52.0,47.0,30.58,West,280,6.0,8.0,84,-99.99,,,-99.99,,2013-07-10 13:25:00,
2013-07-10 07:30:00,52.0,47.0,30.58,NW,320,5.0,10.0,83,-99.99,,,-99.99,,2013-07-10 13:30:00,
2013-07-10 07:35:00,52.0,47.0,30.58,WNW,300,7.0,8.0,82,-99.99,,,-99.99,,2013-07-10 13:35:00,
2013-07-10 07:46:00,53.0,47.0,30.58,NNW,330,5.0,8.0,79,-99.99,,,-99.99,,2013-07-10 13:46:00,
2013-07-10 07:56:00,54.0,48.0,30.58,NNW,340,9.0,9.0,79,-99.99,,,-99.99,,2013-07-10 13:56:00,
2013-07-10 08:05:00,55.0,49.0,30.58,WNW,290,6.0,10.0,78,-99.99,,,-99.99,,2013-07-10 14:05:00,
2013-07-10 08:15:00,57.0,49.0,30.58,NW,320,6.0,8.0,74,-99.99,,,-99.99,,2013-07-10 14:15:00,
2013-07-10 08:25:00,58.0,48.0,30.59,West,280,9.0,10.0,69,-99.99,,,-99.99,,2013-07-10 14:25:00,
2013-07-10 08:30:00,59.0,49.0,30.59,NW,320,7.0,10.0,70,-99.99,,,-99.99,,2013-07-10 14:30:00,
2013-07-10 08:40:00,60.0,48.0,30.59,West,280,8.0,8.0,66,-99.99,,,-99.99,,2013-07-10 14:40:00,
2013-07-10 08:51:00,62.0,48.0,30.59,NW,310,11.0,11.0,60,-99.99,,,-99.99,,2013-07-10 14:51:00,
2013-07-10 08:56:00,62.0,48.0,30.59,West,270,6.0,12.0,59,-99.99,,,-99.99,,2013-07-10 14:56:00,
2013-07-10 09:06:00,63.0,48.0,30.59,NW,310,5.0,8.0,56,-99.99,,,-99.99,,2013-07-10 15:06:00,
2013-07-10 09:15:00,66.0,48.0,30.59,WNW,300,4.0,7.0,52,-99.99,,,-99.99,,2013-07-10 15:15:00,
2013-07-10 09:20:00,67.0,47.0,30.60,WNW,300,6.0,8.0,49,-99.99,,,-99.99,,2013-07-10 15:20:00,
2013-07-10 09:25:00,68.0,48.0,30.59,WNW,290,6.0,8.0,49,-99.99,,,-99.99,,2013-07-10 15:25:00,
2013-07-10 09:35:00,69.0,47.0,30.59,WNW,290,3.0,7.0,46,-99.99,,,-99.99,,2013-07-10 15:35:00,
2013-07-10 09:40:00,69.0,48.0,30.59,NW,320,0.0,6.0,48,-99.99,,,-99.99,,2013-07-10 15:40:00,
2013-07-10 09:50:00,69.0,48.0,30.59,NW,320,0.0,0.0,47,-99.99,,,-99.99,,2013-07-10 15:50:00,
2013-07-10 10:01:00,69.0,52.0,30.58,NW,320,0.0,0.0,55,-99.99,,,-99.99,,2013-07-10 16:01:00,
2013-07-10 10:06:00,70.0,54.0,30.58,NW,320,0.0,0.0,57,-99.99,,,-99.99,,2013-07-10 16:06:00,
2013-07-10 10:15:00,72.0,50.0,30.58,SSE,160,4.0,0.0,47,-99.99,,,-99.99,,2013-07-10 16:15:00,
2013-07-10 10:20:00,73.0,51.0,30.58,ESE,110,4.0,5.0,46,-99.99,,,-99.99,,2013-07-10 16:20:00,
2013-07-10 10:25:00,74.0,50.0,30.58,South,170,4.0,8.0,44,-99.99,,,-99.99,,2013-07-10 16:25:00,
2013-07-10 10:35:00,75.0,49.0,30.58,SSE,150,6.0,10.0,40,-99.99,,,-99.99,,2013-07-10 16:35:00,
2013-07-10 10:45:00,76.0,48.0,30.58,SSE,150,9.0,10.0,37,-99.99,,,-99.99,,2013-07-10 16:45:00,
2013-07-10 10:50:00,76.0,47.0,30.58,SE,140,8.0,12.0,36,-99.99,,,-99.99,,2013-07-10 16:50:00,
2013-07-10 11:01:00,77.0,48.0,30.58,SSE,150,10.0,11.0,36,-99.99,,,-99.99,,2013-07-10 17:01:00,
2013-07-10 11:10:00,77.0,48.0,30.58,South,170,8.0,9.0,36,-99.99,,,-99.99,,2013-07-10 17:10:00,
2013-07-10 11:15:00,78.0,49.0,30.58,South,170,10.0,10.0,36,-99.99,,,-99.99,,2013-07-10 17:15:00,
2013-07-10 11:25:00,78.0,48.0,30.58,South,170,5.0,9.0,34,-99.99,,,-99.99,,2013-07-10 17:25:00,
2013-07-10 11:35:00,78.0,46.0,30.57,South,170,7.0,9.0,32,-99.99,,,-99.99,,2013-07-10 17:35:00,
2013-07-10 11:40:00,79.0,47.0,30.57,SE,140,6.0,9.0,33,-99.99,,,-99.99,,2013-07-10 17:40:00,
2013-07-10 11:50:00,79.0,48.0,30.56,SE,140,9.0,11.0,34,-99.99,,,-99.99,,2013-07-10 17:50:00,
2013-07-10 11:55:00,80.0,47.0,30.56,SSE,160,3.0,12.0,32,-99.99,,,-99.99,,2013-07-10 17:55:00,
2013-07-10 12:06:00,80.0,47.0,30.55,South,170,13.0,13.0,32,-99.99,,,-99.99,,2013-07-10 18:06:00,
2013-07-10 12:11:00,80.0,51.0,30.55,South,180,11.0,14.0,37,-99.99,,,-99.99,,2013-07-10 18:11:00,
2013-07-10 12:20:00,81.0,47.0,30.55,South,170,8.0,12.0,31,-99.99,,,-99.99,,2013-07-10 18:20:00,
2013-07-10 12:25:00,81.0,45.0,30.54,SSE,160,0.0,13.0,28,-99.99,,,-99.99,,2013-07-10 18:25:00,
2013-07-10 12:30:00,81.0,46.0,30.53,SSE,160,7.0,10.0,29,-99.99,,,-99.99,,2013-07-10 18:30:00,
2013-07-10 12:40:00,81.0,44.0,30.53,SE,140,0.0,7.0,27,-99.99,,,-99.99,,2013-07-10 18:40:00,
2013-07-10 12:45:00,81.0,44.0,30.53,ESE,110,5.0,6.0,27,-99.99,,,-99.99,,2013-07-10 18:45:00,
2013-07-10 12:50:00,81.0,42.0,30.53,ENE,70,0.0,6.0,26,-99.99,,,-99.99,,2013-07-10 18:50:00,
2013-07-10 12:55:00,80.0,43.0,30.53,NNE,20,0.0,5.0,27,-99.99,,,-99.99,,2013-07-10 18:55:00,
2013-07-10 13:01:00,79.0,49.0,30.54,WNW,300,18.0,18.0,35,-99.99,,,-99.99,,2013-07-10 19:01:00,
2013-07-10 13:11:00,71.0,51.0,30.54,East,80,4.0,26.0,49,-99.99,,,-99.99,,2013-07-10 19:11:00,
2013-07-10 13:16:00,69.0,54.0,30.53,NE,50,5.0,11.0,57,-99.99,,,-99.99,,2013-07-10 19:16:00,
2013-07-10 13:25:00,69.0,56.0,30.52,ENE,70,4.0,6.0,64,-99.99,,,-99.99,,2013-07-10 19:25:00,
2013-07-10 13:30:00,70.0,57.0,30.52,NE,50,0.0,5.0,64,-99.99,,,-99.99,,2013-07-10 19:30:00,
2013-07-10 13:35:00,71.0,61.0,30.52,NE,50,0.0,4.0,70,-99.99,,,-99.99,,2013-07-10 19:35:00,
2013-07-10 13:41:00,73.0,59.0,30.51,NE,50,0.0,0.0,62,-99.99,,,-99.99,,2013-07-10 19:41:00,
2013-07-10 13:46:00,74.0,55.0,30.51,NE,50,6.0,10.0,51,-99.99,,,-99.99,,2013-07-10 19:46:00,
2013-07-10 13:51:00,75.0,52.0,30.50,NE,40,5.0,9.0,45,-99.99,,,-99.99,,2013-07-10 19:51:00,
2013-07-10 14:01:00,75.0,51.0,30.50,NE,40,0.0,2.0,43,-99.99,,,-99.99,,2013-07-10 20:01:00,
2013-07-10 14:06:00,75.0,51.0,30.50,NE,40,0.0,0.0,43,-99.99,,,-99.99,,2013-07-10 20:06:00,
2013-07-10 14:11:00,75.0,51.0,30.50,NE,40,0.0,0.0,43,-99.99,,,-99.99,,2013-07-10 20:11:00,
2013-07-10 14:16:00,76.0,50.0,30.50,NE,40,0.0,0.0,40,-99.99,,,-99.99,,2013-07-10 20:16:00,
2013-07-10 14:26:00,77.0,48.0,30.49,South,170,0.0,6.0,36,-99.99,,,-99.99,,2013-07-10 20:26:00,
2013-07-10 14:41:00,77.0,53.0,30.49,SSE,150,0.0,0.0,42,-99.99,,,-99.99,,2013-07-10 20:41:00,
2013-07-10 14:46:00,78.0,53.0,30.49,SSE,150,0.0,0.0,42,-99.99,,,-99.99,,2013-07-10 20:46:00,
2013-07-10 14:51:00,78.0,55.0,30.49,SSE,150,0.0,0.0,45,-99.99,,,-99.99,,2013-07-10 20:51:00,
2013-07-10 15:01:00,78.0,54.0,30.48,South,170,4.0,5.0,43,-99.99,,,-99.99,,2013-07-10 21:01:00,
2013-07-10 15:06:00,78.0,50.0,30.48,SSE,150,3.0,6.0,37,-99.99,,,-99.99,,2013-07-10 21:06:00,
2013-07-10 15:16:00,79.0,45.0,30.48,ENE,70,0.0,3.0,30,-99.99,,,-99.99,,2013-07-10 21:16:00,
2013-07-10 15:26:00,79.0,46.0,30.47,West,280,0.0,4.0,31,-99.99,,,-99.99,,2013-07-10 21:26:00,
2013-07-10 15:31:00,79.0,46.0,30.47,North,10,7.0,7.0,31,-99.99,,,-99.99,,2013-07-10 21:31:00,
2013-07-10 15:41:00,80.0,44.0,30.47,NNW,330,0.0,7.0,28,-99.99,,,-99.99,,2013-07-10 21:41:00,
2013-07-10 15:46:00,80.0,44.0,30.47,WSW,250,0.0,7.0,28,-99.99,,,-99.99,,2013-07-10 21:46:00,
2013-07-10 15:51:00,80.0,44.0,30.47,NW,320,14.0,14.0,27,-99.99,,,-99.99,,2013-07-10 21:51:00,
2013-07-10 16:01:00,81.0,43.0,30.47,NW,320,7.0,12.0,26,-99.99,,,-99.99,,2013-07-10 22:01:00,
2013-07-10 16:06:00,81.0,41.0,30.46,NNW,330,8.0,13.0,24,-99.99,,,-99.99,,2013-07-10 22:06:00,
2013-07-10 16:16:00,82.0,39.0,30.46,WNW,290,11.0,11.0,22,-99.99,,,-99.99,,2013-07-10 22:16:00,
2013-07-10 16:21:00,82.0,37.0,30.45,West,280,8.0,12.0,20,-99.99,,,-99.99,,2013-07-10 22:21:00,
2013-07-10 16:31:00,81.0,41.0,30.45,NW,320,3.0,9.0,24,-99.99,,,-99.99,,2013-07-10 22:31:00,
2013-07-10 16:41:00,81.0,38.0,30.44,WNW,290,8.0,10.0,21,-99.99,,,-99.99,,2013-07-10 22:41:00,
2013-07-10 16:46:00,82.0,38.0,30.44,NW,310,13.0,14.0,21,-99.99,,,-99.99,,2013-07-10 22:46:00,
2013-07-10 16:51:00,82.0,37.0,30.44,NW,310,9.0,17.0,20,-99.99,,,-99.99,,2013-07-10 22:51:00,
2013-07-10 16:56:00,82.0,37.0,30.43,WNW,300,9.0,12.0,21,-99.99,,,-99.99,,2013-07-10 22:56:00,
2013-07-10 17:06:00,82.0,38.0,30.43,WNW,300,4.0,8.0,21,-99.99,,,-99.99,,2013-07-10 23:06:00,
2013-07-10 17:11:00,82.0,37.0,30.43,WNW,290,5.0,7.0,20,-99.99,,,-99.99,,2013-07-10 23:11:00,
2013-07-10 17:16:00,82.0,38.0,30.43,NW,310,4.0,9.0,21,-99.99,,,-99.99,,2013-07-10 23:16:00,
2013-07-10 17:21:00,82.0,39.0,30.42,North,350,5.0,8.0,21,-99.99,,,-99.99,,2013-07-10 23:21:00,
2013-07-10 17:31:00,82.0,39.0,30.42,West,260,6.0,11.0,21,-99.99,,,-99.99,,2013-07-10 23:31:00,
2013-07-10 17:36:00,82.0,40.0,30.42,WNW,300,9.0,11.0,22,-99.99,,,-99.99,,2013-07-10 23:36:00,
2013-07-10 17:46:00,82.0,38.0,30.42,WNW,290,7.0,14.0,21,-99.99,,,-99.99,,2013-07-10 23:46:00,
2013-07-10 17:56:00,82.0,39.0,30.42,NNW,340,6.0,13.0,22,-99.99,,,-99.99,,2013-07-10 23:56:00,
2013-07-10 18:06:00,81.0,41.0,30.42,NNW,330,3.0,11.0,24,-99.99,,,-99.99,,2013-07-11 00:06:00,
2013-07-10 18:16:00,81.0,42.0,30.42,NW,320,5.0,8.0,25,-99.99,,,-99.99,,2013-07-11 00:16:00,
2013-07-10 18:21:00,81.0,42.0,30.42,West,280,3.0,7.0,25,-99.99,,,-99.99,,2013-07-11 00:21:00,
2013-07-10 18:26:00,81.0,43.0,30.42,NNW,330,4.0,7.0,26,-99.99,,,-99.99,,2013-07-11 00:26:00,
2013-07-10 18:36:00,80.0,44.0,30.42,WNW,290,6.0,6.0,28,-99.99,,,-99.99,,2013-07-11 00:36:00,
2013-07-10 18:41:00,80.0,46.0,30.42,NW,310,5.0,8.0,30,-99.99,,,-99.99,,2013-07-11 00:41:00,
2013-07-10 18:46:00,80.0,46.0,30.41,WNW,290,7.0,8.0,30,-99.99,,,-99.99,,2013-07-11 00:46:00,
2013-07-10 18:51:00,80.0,47.0,30.41,NW,310,5.0,9.0,31,-99.99,,,-99.99,,2013-07-11 00:51:00,
2013-07-10 19:01:00,79.0,46.0,30.41,WNW,290,6.0,9.0,32,-99.99,,,-99.99,,2013-07-11 01:01:00,
2013-07-10 19:11:00,78.0,47.0,30.41,NW,310,7.0,8.0,33,-99.99,,,-99.99,,2013-07-11 01:11:00,
2013-07-10 19:21:00,78.0,47.0,30.41,NNW,340,0.0,6.0,34,-99.99,,,-99.99,,2013-07-11 01:21:00,
2013-07-10 19:26:00,77.0,47.0,30.41,NNW,340,0.0,0.0,34,-99.99,,,-99.99,,2013-07-11 01:26:00,
2013-07-10 19:36:00,77.0,48.0,30.42,NW,310,3.0,4.0,36,-99.99,,,-99.99,,2013-07-11 01:36:00,
2013-07-10 19:46:00,76.0,46.0,30.42,NW,310,5.0,5.0,34,-99.99,,,-99.99,,2013-07-11 01:46:00,
2013-07-10 19:51:00,76.0,49.0,30.42,NNW,340,0.0,5.0,38,-99.99,,,-99.99,,2013-07-11 01:51:00,
2013-07-10 19:56:00,75.0,48.0,30.42,NNW,340,0.0,0.0,38,-99.99,,,-99.99,,2013-07-11 01:56:00,
2013-07-10 20:06:00,74.0,48.0,30.42,NE,50,2.0,4.0,39,-99.99,,,-99.99,,2013-07-11 02:06:00,
2013-07-10 20:16:00,73.0,47.0,30.42,NE,40,0.0,0.0,41,-99.99,,,-99.99,,2013-07-11 02:16:00,
2013-07-10 20:26:00,72.0,48.0,30.42,West,270,0.0,0.0,44,-99.99,,,-99.99,,2013-07-11 02:26:00,
2013-07-10 20:36:00,71.0,47.0,30.42,West,270,0.0,0.0,43,-99.99,,,-99.99,,2013-07-11 02:36:00,
2013-07-10 20:41:00,70.0,46.0,30.42,West,270,0.0,0.0,43,-99.99,,,-99.99,,2013-07-11 02:41:00,
2013-07-10 20:46:00,70.0,48.0,30.43,West,270,0.0,0.0,46,-99.99,,,-99.99,,2013-07-11 02:46:00,
2013-07-10 20:51:00,69.0,48.0,30.43,West,270,0.0,0.0,48,-99.99,,,-99.99,,2013-07-11 02:51:00,
2013-07-10 20:56:00,69.0,49.0,30.43,West,270,0.0,0.0,49,-99.99,,,-99.99,,2013-07-11 02:56:00,
2013-07-10 21:06:00,68.0,48.0,30.43,West,270,0.0,0.0,49,-99.99,,,-99.99,,2013-07-11 03:06:00,
2013-07-10 21:11:00,67.0,48.0,30.44,West,270,0.0,0.0,50,-99.99,,,-99.99,,2013-07-11 03:11:00,
2013-07-10 21:21:00,66.0,49.0,30.44,West,260,0.0,0.0,55,-99.99,,,-99.99,,2013-07-11 03:21:00,
2013-07-10 21:26:00,65.0,50.0,30.45,West,260,0.0,0.0,56,-99.99,,,-99.99,,2013-07-11 03:26:00,
2013-07-10 21:31:00,65.0,48.0,30.45,West,260,0.0,0.0,55,-99.99,,,-99.99,,2013-07-11 03:31:00,
2013-07-10 21:41:00,64.0,48.0,30.45,WNW,290,0.0,4.0,57,-99.99,,,-99.99,,2013-07-11 03:41:00,
2013-07-10 21:46:00,64.0,48.0,30.45,WNW,290,0.0,0.0,57,-99.99,,,-99.99,,2013-07-11 03:46:00,
2013-07-10 21:51:00,63.0,48.0,30.45,North,350,0.0,5.0,57,-99.99,,,-99.99,,2013-07-11 03:51:00,
2013-07-10 21:56:00,63.0,49.0,30.46,North,350,0.0,0.0,59,-99.99,,,-99.99,,2013-07-11 03:56:00,
2013-07-10 22:01:00,63.0,48.0,30.46,NW,310,0.0,4.0,59,-99.99,,,-99.99,,2013-07-11 04:01:00,
2013-07-10 22:06:00,62.0,48.0,30.46,NW,310,0.0,0.0,60,-99.99,,,-99.99,,2013-07-11 04:06:00,
2013-07-10 22:11:00,62.0,48.0,30.46,NW,310,0.0,0.0,59,-99.99,,,-99.99,,2013-07-11 04:11:00,
2013-07-10 22:21:00,62.0,50.0,30.47,NNW,330,0.0,0.0,63,-99.99,,,-99.99,,2013-07-11 04:21:00,
2013-07-10 22:31:00,62.0,49.0,30.47,NNW,330,0.0,0.0,63,-99.99,,,-99.99,,2013-07-11 04:31:00,
2013-07-10 22:36:00,61.0,49.0,30.47,NNW,330,0.0,0.0,62,-99.99,,,-99.99,,2013-07-11 04:36:00,
2013-07-10 22:41:00,61.0,49.0,30.47,NNW,330,0.0,0.0,63,-99.99,,,-99.99,,2013-07-11 04:41:00,
2013-07-10 22:46:00,60.0,49.0,30.47,West,280,0.0,2.0,65,-99.99,,,-99.99,,2013-07-11 04:46:00,
2013-07-10 22:51:00,60.0,49.0,30.46,West,280,0.0,0.0,66,-99.99,,,-99.99,,2013-07-11 04:51:00,
2013-07-10 22:56:00,60.0,49.0,30.47,WNW,300,5.0,5.0,68,-99.99,,,-99.99,,2013-07-11 04:56:00,
2013-07-10 23:06:00,59.0,48.0,30.47,NW,310,4.0,5.0,67,-99.99,,,-99.99,,2013-07-11 05:06:00,
2013-07-10 23:16:00,58.0,48.0,30.47,NNW,340,5.0,5.0,69,-99.99,,,-99.99,,2013-07-11 05:16:00,
2013-07-10 23:26:00,58.0,48.0,30.48,NNW,340,6.0,6.0,70,-99.99,,,-99.99,,2013-07-11 05:26:00,
2013-07-10 23:31:00,58.0,48.0,30.47,North,350,5.0,7.0,69,-99.99,,,-99.99,,2013-07-11 05:31:00,
2013-07-10 23:41:00,57.0,47.0,30.48,NNW,340,3.0,3.0,69,-99.99,,,-99.99,,2013-07-11 05:41:00,
2013-07-10 23:46:00,57.0,46.0,30.48,NE,40,3.0,5.0,67,-99.99,,,-99.99,,2013-07-11 05:46:00,
2013-07-10 23:56:00,57.0,46.0,30.48,West,280,4.0,4.0,68,-99.99,,,-99.99,,2013-07-11 05:56:00,